Zurück zum Katalog

QIANFAN-150

AktivKommunikationPO
NORAD 69109·PAYLOAD·🇨🇳 China

Gestartet May 17, 2026 von Wenchang Space Launch Site

Loading…

Nächste Überflüge (nächste 24 Stunden)

TLE

AktuellSource: Space-Track

Epoche: Sep 14, 2026, 12:59 UTC

1 69109U 26108F   26257.54159473  .00000098  00000-0  13394-3 0  9992
2 69109  89.0190  13.0938 0002259 109.0946 251.0450 13.51023552 16512

Verfolge QIANFAN-150 in Echtzeit mit AllMySat

Download on the App Store